| DS18B20 | SHTC3 | PZEM-004T | WiFi | ||||||||
|---|---|---|---|---|---|---|---|---|---|---|---|
| ID | Date d/m/Y & Time | data1 สูง | data2 ต่ำ | data3 นอก | temp pcb | hum pcb | Volt | Amp | Watt | rssi | Time |
| 15552 | 24/08/2026 11:37:31 | 31.8  | 30.4  | 32.8  | 32.7  | 62.8  | 234.3  | 0.04  | 4.5  | -78  | 11:37 |
| 15551 | 24/08/2026 11:32:48 | 31.7  | 30.4  | 32.7  | 32.6  | 62.9  | 234.1  | 0.04  | 4.5  | -77  | 11:32 |
| 15550 | 24/08/2026 11:28:04 | 31.6  | 30.3  | 32.5  | 32.4  | 62.9  | 234.4  | 0.04  | 4.5  | -75  | 11:28 |
| 15549 | 24/08/2026 11:23:21 | 31.6  | 30.2  | 32.4  | 32.3  | 63.0  | 234.2  | 0.04  | 4.5  | -75  | 11:23 |
| 15548 | 24/08/2026 11:18:37 | 31.4  | 30.2  | 32.3  | 32.4  | 63.0  | 234.1  | 0.04  | 4.5  | -74  | 11:18 |
| 15547 | 24/08/2026 11:13:53 | 31.4  | 30.1  | 32.1  | 32.3  | 63.2  | 234.3  | 0.04  | 4.5  | -78  | 11:13 |
| 15546 | 24/08/2026 11:09:10 | 31.2  | 30.1  | 32.2  | 32.1  | 63.1  | 234.4  | 0.04  | 4.5  | -78  | 11:09 |
| 15545 | 24/08/2026 11:04:26 | 31.2  | 30.1  | 32.0  | 32.1  | 63.2  | 234.3  | 0.04  | 4.5  | -78  | 11:04 |
| 15544 | 24/08/2026 10:59:42 | 31.1  | 30.0  | 32.1  | 32.1  | 63.4  | 234.1  | 0.04  | 4.5  | -75  | 10:59 |
| 15543 | 24/08/2026 10:54:59 | 31.1  | 29.9  | 31.9  | 32.0  | 63.5  | 234.4  | 0.04  | 4.5  | -78  | 10:54 |
| 15542 | 24/08/2026 10:50:16 | 31.0  | 29.9  | 31.9  | 32.0  | 63.5  | 233.5  | 0.04  | 4.5  | -73  | 10:50 |
| 15541 | 24/08/2026 10:45:33 | 30.9  | 29.9  | 31.8  | 31.7  | 63.6  | 234.1  | 0.04  | 4.6  | -74  | 10:45 |
| 15540 | 24/08/2026 10:40:47 | 30.8  | 29.8  | 31.7  | 31.7  | 63.7  | 234.2  | 0.04  | 4.5  | -79  | 10:40 |
| 15539 | 24/08/2026 10:36:04 | 30.8  | 29.8  | 31.8  | 31.8  | 64.0  | 233.8  | 0.04  | 4.5  | -74  | 10:36 |
| 15538 | 24/08/2026 10:31:21 | 30.6  | 29.7  | 31.5  | 31.5  | 64.0  | 233.4  | 0.04  | 4.5  | -75  | 10:31 |
| 15537 | 24/08/2026 10:26:35 | 30.6  | 29.6  | 31.4  | 31.6  | 64.0  | 233.4  | 0.04  | 4.5  | -77  | 10:26 |
| 15536 | 24/08/2026 10:21:52 | 30.5  | 29.6  | 31.4  | 31.4  | 64.1  | 233.4  | 0.04  | 4.5  | -75  | 10:21 |
| 15535 | 24/08/2026 10:17:08 | 30.4  | 29.6  | 31.2  | 31.5  | 64.2  | 233.4  | 0.04  | 4.5  | -77  | 10:17 |
| 15534 | 24/08/2026 10:12:25 | 30.3  | 29.6  | 31.0  | 31.2  | 64.2  | 233.3  | 0.04  | 4.5  | -75  | 10:12 |
| 15533 | 24/08/2026 10:07:41 | 30.2  | 29.5  | 30.8  | 31.2  | 64.4  | 233.5  | 0.04  | 4.5  | -76  | 10:07 |
| 15532 | 24/08/2026 10:02:57 | 30.1  | 29.4  | 30.8  | 31.1  | 64.6  | 234.0  | 0.04  | 4.5  | -78  | 10:02 |
| 15531 | 24/08/2026 09:53:25 | 29.9  | 29.4  | 30.6  | 30.9  | 64.7  | 233.4  | 0.04  | 4.5  | -75  | 09:53 |
| 15530 | 24/08/2026 09:48:42 | 29.9  | 29.4  | 30.5  | 31.1  | 64.9  | 233.6  | 0.04  | 4.5  | -77  | 09:48 |
| 15529 | 24/08/2026 09:43:59 | 29.8  | 29.3  | 30.4  | 30.7  | 64.7  | 234.1  | 0.04  | 4.5  | -77  | 09:43 |